Location: Unspecified
(42.9300°N, 71.1866°W)
Time: 12:59:31
(UTC-04:00)

Genesis I - Visible Passes

Search period start: 22 September 2017 00:00
Search period end: 02 October 2017 00:00
Orbit: 498 x 532 km, 64.5° (Epoch: 22 September)

Date Brightness Start Highest point End Pass type
(mag) Time Alt. Az. Time Alt. Az. Time Alt. Az.
28 Sep 5.4 06:02:49 10° NNW 06:06:15 26° NE 06:09:39 10° ESE visible
29 Sep 5.4 05:46:50 10° NNW 05:50:16 27° NE 05:53:42 10° ESE visible
30 Sep 5.4 05:30:51 10° NNW 05:34:19 27° NE 05:37:45 10° ESE visible
01 Oct 5.3 05:14:51 10° NNW 05:18:20 27° NE 05:21:47 10° ESE visible
